Goodland, KS

8:13 PM MST on November 23, 2017 (GMT -0700)
Renner-Goodland Municipal

Weather History for KGLD - November, 2013

Change the Weather History Date:

Thursday, November 14, 2013

  Actual Average Record
Temperature  
Mean Temperature 45 °F 40 °F  
Max Temperature 57 °F 53 °F 75 °F (1975)
Min Temperature 33 °F 26 °F -4 °F (1940)
Degree Days  
Heating Degree Days 20 25  
Month to date heating degree days 309 310  
Since 1 July heating degree days 820 850  
Cooling Degree Days 0 0  
Month to date cooling degree days 0 0  
Year to date cooling degree days 1181 941  
Moisture  
Dew Point 32 °F    
Average Humidity 60    
Maximum Humidity 79    
Minimum Humidity 40    
Precipitation  
Precipitation 0.00 in 0.02 in 0.61 in (1926)
Month to date precipitation 0.16 0.39  
Year to date precipitation 16.68 18.88  
Snow  
Snow 0.00 in 0.10 in - ()
Month to date snowfall T 1.8  
Since 1 July snowfall 4.0 4.4  
Since 1 September snowfall 4.0 4.4  
Snow Depth 0.00 in    
Sea Level Pressure  
Sea Level Pressure 29.94 in    
Wind  
Wind Speed 13 mph (NNW)    
Max Wind Speed 28 mph    
Max Gust Speed 36 mph    
Visibility 10 miles    
Events      
T = Trace of Precipitation, MM = Missing Value Source: NWS Daily Summary

Daily Weather History Graph

Daily Weather History Graph

Search for Another Location

Airport or City:

Trip Planner

Search our weather history database for the weather conditions in past years. The results will help you decide how hot, cold, wet, or windy it might be!

Date:

Astronomy

Nov. 14, 2013 Rise Set
Actual Time 6:29 AM MST 4:32 PM MST
Civil Twilight 6:01 AM MST 5:01 PM MST
Nautical Twilight 5:28 AM MST 5:33 PM MST
Astronomical Twilight 4:56 AM MST 6:05 PM MST
Moon 2:54 PM MST (11/14) 3:27 AM MST (11/14)
Length of Visible Light 11h 00m
Length of Day
10h 02m
Waxing Gibbous, 92% of the Moon is Illuminated
Nov 14
Waxing Gibbous
Nov 17
Full
Nov 25
Last Quarter
Dec 2
New
Dec 9
First Quarter

Hourly Weather History & Observations

Time (MST) Temp. Windchill Dew Point Humidity Pressure Visibility Wind Dir Wind Speed Gust Speed Precip Events Conditions
12:53 AM 39.0 °F 31.8 °F 28.0 °F 65% 29.88 in 10.0 mi WNW 11.5 mph - N/A   Clear
1:53 AM 41.0 °F 35.2 °F 24.1 °F 51% 29.87 in 10.0 mi West 9.2 mph - N/A   Clear
2:53 AM 39.9 °F 33.9 °F 23.0 °F 51% 29.87 in 10.0 mi West 9.2 mph - N/A   Clear
3:53 AM 46.0 °F 40.6 °F 26.1 °F 46% 29.88 in 10.0 mi NNW 11.5 mph - N/A   Clear
4:53 AM 48.0 °F - 28.0 °F 46% 29.90 in 10.0 mi NNW 21.9 mph - N/A   Clear
5:53 AM 45.0 °F 37.4 °F 30.9 °F 58% 29.94 in 10.0 mi NNW 18.4 mph - N/A   Clear
6:53 AM 44.1 °F 35.7 °F 30.9 °F 60% 29.98 in 10.0 mi NNW 20.7 mph - N/A   Clear
7:53 AM 45.0 °F 36.9 °F 32.0 °F 60% 30.01 in 10.0 mi North 20.7 mph 28.8 mph N/A   Clear
8:53 AM 48.0 °F - 35.1 °F 61% 30.03 in 10.0 mi North 27.6 mph 33.4 mph N/A   Clear
9:53 AM 51.1 °F - 36.0 °F 56% 30.02 in 10.0 mi NNE 26.5 mph 29.9 mph N/A   Clear
10:53 AM 54.0 °F - 36.0 °F 51% 30.01 in 10.0 mi NNE 19.6 mph - N/A   Clear
11:53 AM 55.0 °F - 35.1 °F 47% 29.99 in 10.0 mi NNE 17.3 mph 23.0 mph N/A   Clear
12:53 PM 55.9 °F - 34.0 °F 44% 29.95 in 10.0 mi NE 8.1 mph - N/A   Clear
1:53 PM 57.0 °F - 34.0 °F 42% 29.94 in 10.0 mi NE 12.7 mph - N/A   Clear
2:53 PM 57.0 °F - 34.0 °F 42% 29.93 in 10.0 mi North 6.9 mph - N/A   Clear
3:53 PM 54.0 °F - 34.0 °F 47% 29.92 in 10.0 mi Calm Calm - N/A   Clear
4:53 PM 42.1 °F 38.4 °F 32.0 °F 67% 29.94 in 10.0 mi SE 5.8 mph - N/A   Clear
5:53 PM 39.9 °F - 30.9 °F 70% 29.95 in 10.0 mi North - - N/A   Clear
6:53 PM 39.9 °F 33.9 °F 32.0 °F 73% 29.95 in 10.0 mi South 9.2 mph - N/A   Clear
7:53 PM 39.9 °F 34.5 °F 32.0 °F 73% 29.94 in 10.0 mi South 8.1 mph - N/A   Clear
8:53 PM 42.1 °F 36.6 °F 33.1 °F 70% 29.94 in 10.0 mi SSW 9.2 mph - N/A   Clear
9:53 PM 42.1 °F 36.1 °F 33.1 °F 70% 29.90 in 10.0 mi SSW 10.4 mph - N/A   Clear
10:53 PM 39.0 °F 31.4 °F 33.1 °F 79% 29.87 in 10.0 mi South 12.7 mph - N/A   Clear
11:53 PM 37.9 °F 30.5 °F 32.0 °F 79% 29.86 in 10.0 mi SSW 11.5 mph - N/A   Clear